Weather Roundup
Issued by NWS Chicago, IL

Home | Current Version | Previous Version | Text Only | Print | Product List | Glossary On
Versions: 1 2 3 4 5 6 7 8 9 10 11 12 13 14 15 16 17 18 19 20 21 22 23 24 25 26 27 28 29 30 31 32 33 34 35 36 37 38 39 40 41 42 43 44 45 46 47 48 49 50
000
NZUS59 KLOT 051612
HRRLOT

CHICAGO AREA WEATHER ROUNDUP
NATIONAL WEATHER SERVICE CHICAGO/ROMEOVILLE IL
1000 AM CST MON DEC 05 2016

NOTE: "FAIR" INDICATES FEW OR NO CLOUDS BELOW 12,000 FEET WITH NO
SIGNIFICANT WEATHER AND/OR OBSTRUCTIONS TO VISIBILITY.

* THESE STATIONS ARE NOT UNDER NWS QUALITY CONTROL. THEY ALSO MAY NOT
  REPORT WEATHER SUCH AS PRECIPITATION OR FOG.

ILZ005-006-012>014-019>023-051700-
NORTHEAST ILLINOIS

CITY           SKY/WX    TMP DP  RH WIND       PRES   REMARKS
OHARE          CLOUDY    32  30  92 S13       30.03R FOG     WCI  22
MIDWAY         CLOUDY    33  30  88 S10       30.05R FOG     WCI  25
AURORA         FOG       32  31  96 S9        30.04R VSB 3/4 WCI  24
LANSING*       CLOUDY    32  32  99 S9        30.07R WCI  24
JOLIET*        CLOUDY    33  32  96 S10       30.06R FOG     WCI  25
WAUKEGAN       CLOUDY    32  31  96 SW8       30.01R FOG     WCI  25
DUPAGE AIRPORT CLOUDY    32  29  88 S13       30.03R FOG     WCI  22
WHEELING       CLOUDY    33  31  92 S8        30.04R FOG     WCI  26
KANKAKEE*      CLOUDY    32  31  93 S8        30.08R WCI  25
MORRIS*        CLOUDY    32  31  95 S13       30.05R WCI  22
LEWIS AIRPORT* CLOUDY    32  32 100 S12       30.05R FOG     WCI  23
NORTHERLY ISL    N/A     33  31  92 S12         N/A  WCI  24
$$

WIZ051-052-058>065-066-070>072-051700-
SOUTHEAST WISCONSIN

CITY           SKY/WX    TMP DP  RH WIND       PRES   REMARKS
MILWAUKEE      CLOUDY    34  31  88 S9        30.00R WCI  27
KENOSHA*       CLOUDY    33  31  92 SW8       30.01R FOG     WCI  26
RACINE*        CLOUDY    33  30  88 SW10      30.02R FOG     WCI  25
BURLINGTON     CLOUDY    33  32  98 S10       29.99S FOG     WCI  24
WAUKESHA       CLOUDY    30  30 100 SW7       29.98R FOG     WCI  23
WEST BEND      CLOUDY    32  32 100 S10       29.97R WCI  24
$$

INZ001>003-010>013-019-020-051700-
NORTHWEST INDIANA

CITY           SKY/WX    TMP DP  RH WIND       PRES   REMARKS
GARY*          NOT AVBL
MICHIGAN CITY* NOT AVBL
RENSSELAER*    NOT AVBL
VALPARAISO     CLOUDY    33  30  88 S10       30.07R WCI  25
$$

LMZ740>746-051700-
SOUTHERN LAKE MICHIGAN

STATION/POSITION TIME  SKY/WX   TEMP WIND        PRES    VSBY
                                AIR  DIR/SP/G
                 (UTC)          (F)  (DEG/KT/KT) (MB)    (MI)
HARRISON CRIB    1540            34  210/ 14/ 15   N/A
BURNHAM HARBOR   1600            33  190/  9/ 11   N/A
CALUMET HARBOR   1548            33  190/  7/ 10 1016.9R
BURNS HARBOR     1540            33  220/  9/ 12 1018.3R
MICHIGAN CITY    NOT AVBL
$$

ABBREVIATIONS USED IN REMARKS
   TC - TEMPERATURE IN CELSIUS
  WCI - WIND CHILL INDEX
   HX - HEAT INDEX
  VSB - VISIBILITY
$$




USA.gov is the U.S. government's official web portal to all federal, state and local government web resources and services.